Flag for Canada Weather past 2 weeks in St. Albert, Alberta, Canada

Now
64 °F

Broken clouds.


Feels Like: 64 °F
Forecast: 46 / 59 °F
Wind: 8 mph from West

Location: Edmonton Municipal

Current Time: Sep 2, 2014 at 3:59:35 PM

Latest Report: Sep 2, 2014 at 3:00 PM


Visibility: 9 mi

Pressure: 29.72 "Hg

Humidity: 52%

Dew point: 46 °F

Location of St. AlbertLocation

Historic Weather in St. Albert — Graph

°F

St. Albert temperature yesterday

Maximum temperature yesterday: 63 °F (at 4:00 PM)
Minimum temperature yesterday: 45 °F (at 7:00 AM)
Average temperature yesterday: 54 °F

Past Weeks' High & Low Weather Summary

 TemperatureHumidityPressure
High81 °F (Aug 18, 4:00 PM)94% (Aug 21, 12:00 AM)30.41 "Hg (Aug 21, 12:00 AM)
Low41 °F (Aug 23, 7:00 AM)35% (Aug 28, 5:00 PM)29.62 "Hg (Aug 29, 11:00 PM)
Average59 °F65%29.94 "Hg
* Reported Aug 18 2:00 PM — Sep 2 2:00 PM, St. Albert, Weather by CustomWeather, © 2014

Note: Actual official high and low records may vary slightly from our data, if they occured in-between our weather recording intervals... More about our weather records

Advertising

St. Albert weather history for previous 24 hours

 ConditionsComfort  
Time TempWeatherWind HumidityBarometerVisibility
2:00 PM
Sep 2
61 °FPassing clouds.10 mph59%29.73 "Hg9 mi
1:00 PM59 °FPartly sunny.6 mph63%29.74 "Hg9 mi
12:00 PM61 °FPartly sunny.7 mph63%29.75 "Hg9 mi
11:00 AM57 °FBroken clouds.8 mph72%29.75 "Hg9 mi
10:00 AM57 °FPartly sunny.9 mph77%29.76 "Hg9 mi
9:00 AM54 °FScattered clouds.6 mph88%29.76 "Hg9 mi
8:00 AM52 °FPartly sunny.6 mph88%29.76 "Hg9 mi
7:00 AM50 °FMostly cloudy.5 mph88%29.75 "Hg9 mi
6:00 AM50 °FPartly cloudy.3 mph94%29.75 "Hg9 mi
5:00 AM50 °FLight rain. Overcast.3 mph94%29.74 "Hg9 mi
4:00 AM50 °FPartly cloudy.No wind88%29.74 "Hg9 mi
3:00 AM52 °FRain. Overcast.5 mph82%29.75 "Hg9 mi
2:47 AM52 °FRain. Overcast.6 mph82%29.74 "Hg9 mi
2:00 AM50 °FPassing clouds.6 mph88%29.75 "Hg9 mi
1:00 AM52 °FPassing clouds.8 mph82%29.75 "Hg9 mi
12:00 AM52 °FPassing clouds.7 mph88%29.75 "Hg9 mi
11:00 PM
Sep 1
52 °FPassing clouds.7 mph88%29.76 "Hg9 mi
10:00 PM54 °FClear.6 mph82%29.76 "Hg9 mi
9:00 PM54 °FSunny.8 mph77%29.77 "Hg9 mi
8:00 PM57 °FPassing clouds.8 mph67%29.77 "Hg9 mi
7:00 PM59 °FPassing clouds.5 mph63%29.77 "Hg9 mi
6:00 PM57 °FBroken clouds.6 mph67%29.76 "Hg9 mi
5:00 PM61 °FPartly sunny.3 mph59%29.76 "Hg9 mi
4:00 PM63 °FScattered clouds.6 mph56%29.76 "Hg9 mi
3:00 PM61 °FScattered clouds.6 mph55%29.78 "Hg9 mi
Weather by CustomWeather, © 2014

See weather overviewHow to use our weather pages